Location: Amsterdam
(30.7274°N, 84.4357°W)
Time: 19:44:17
(UTC+00:00)

Altair - Pass Details

Date: 08 August 2024
Orbit: 1501 x 1682 km, 47.2° (Epoch: 07 September)

Event Time Altitude Azimuth Distance (km) Brightness Sun altitude
Rises 21:26:52 0° 294° (WNW) 4,806 10.9 37.1°
Reaches altitude 10° 21:30:41 10° 306° (NW) 3,791 10.4 36.3°
Maximum altitude 21:38:39 29° 3° (N) 2,566 8.9 34.5°
Drops below altitude 10° 21:46:24 10° 60° (ENE) 3,683 9.1 32.9°
Sets 21:50:02 0° 72° (ENE) 4,648 9.5 32.1°
